CW8428 Weather Reports


Display with metric or nautical units.
time (UTC)temp
F
wind
direction
speed
MPH
gust
MPH
rain 1hr
in
rain 24hr
in
rain mn
in
humidity
%
barometer
mb
20260906210616 82 156 12.0 25.0 0.00 0.00 0.00 26 1015.0
20260906205619 83 98 11.0 20.0 0.00 0.00 0.00 27 1015.0
20260906204630 84 131 8.0 14.0 0.00 0.00 0.00 25 1015.1
20260906203625 83 199 11.0 21.0 0.00 0.00 0.00 25 1015.1
20260906202615 82 144 11.0 17.0 0.00 0.00 0.00 27 1015.4
20260906201626 82 168 7.0 13.0 0.00 0.00 0.00 25 1015.5
20260906200616 82 144 10.0 17.0 0.00 0.00 0.00 26 1015.7
20260906195622 81 153 9.0 18.0 0.00 0.00 0.00 26 1015.8
20260906194631 81 151 8.0 18.0 0.00 0.00 0.00 27 1016.0
20260906193620 81 162 9.0 19.0 0.00 0.00 0.00 26 1016.3
20260906192628 80 184 11.0 17.0 0.00 0.00 0.00 27 1016.2
20260906191620 81 200 9.0 17.0 0.00 0.00 0.00 27 1016.3
20260906190651 81 180 6.0 21.0 0.00 0.00 0.00 25 1016.3
20260906185651 81 141 10.0 21.0 0.00 0.00 0.00 24 1016.5
20260906184619 81 159 7.0 20.0 0.00 0.00 0.00 24 1016.7
20260906183612 81 194 14.0 22.0 0.00 0.00 0.00 25 1016.7
20260906182620 81 195 8.0 19.0 0.00 0.00 0.00 25 1016.6
20260906181650 81 208 14.0 21.0 0.00 0.00 0.00 24 1016.5
20260906180626 80 178 13.0 23.0 0.00 0.00 0.00 25 1016.8
20260906175629 80 180 14.0 19.0 0.00 0.00 0.00 25 1017.0
20260906174645 80 171 13.0 19.0 0.00 0.00 0.00 25 1017.2
20260906173614 80 171 12.0 18.0 0.00 0.00 0.00 25 1017.1
20260906172625 80 207 11.0 20.0 0.00 0.00 0.00 25 1017.3
20260906171636 80 132 11.0 15.0 0.00 0.00 0.00 25 1017.5
20260906170630 79 155 13.0 18.0 0.00 0.00 0.00 26 1017.5
20260906165612 79 157 12.0 18.0 0.00 0.00 0.00 27 1017.7
20260906164622 79 142 8.0 18.0 0.00 0.00 0.00 28 1017.8
20260906163633 79 105 10.0 13.0 0.00 0.00 0.00 28 1017.8
20260906162626 79 196 12.0 18.0 0.00 0.00 0.00 28 1017.9
20260906161616 78 193 9.0 16.0 0.00 0.00 0.00 27 1017.8